Location: Berville
(49.1893°N, 2.0748°E)
Time: 20:24:14
(UTC+00:00)

FENGYUN 1C DEB - Pass Details

Date: 03 March 2024
Orbit: 768 x 960 km, 99.0° (Epoch: 13 April)

Event Time Altitude Azimuth Distance (km) Brightness Sun altitude
Exits shadow 21:35:56 40° 290° (WNW) 1,380 ? -37.1°
Drops below altitude 10° 21:40:31 10° 333° (NNW) 2,659 ? -37.7°
Sets 21:43:04 0° 340° (NNW) 3,585 ? -38.0°
